Dothan, AL

2:12 AM CDT on June 23, 2017 (GMT -0500)
Dothan Regional

Weather History for KDHN - September, 2013

Change the Weather History Date:

Tuesday, September 10, 2013

  Actual Average Record
Temperature  
Mean Temperature 81 °F 78 °F  
Max Temperature 89 °F 89 °F 98 °F (1939)
Min Temperature 72 °F 67 °F 55 °F (1956)
Cooling Degree Days 16 13  
Month to date cooling degree days 159 140  
Year to date cooling degree days 1913 2020  
Growing Degree Days 30 (Base 50)    
Moisture  
Dew Point 70 °F    
Average Humidity 74    
Maximum Humidity 93    
Minimum Humidity 48    
Precipitation  
Precipitation 0.03 in 0.15 in 2.26 in (1938)
Month to date precipitation 2.30 1.52  
Year to date precipitation 60.14 39.91  
Sea Level Pressure  
Sea Level Pressure 30.15 in    
Wind  
Wind Speed 5 mph (East)    
Max Wind Speed 13 mph    
Max Gust Speed -    
Visibility 10 miles    
Events Rain    
T = Trace of Precipitation, MM = Missing Value Source: NWS Daily Summary

Daily Weather History Graph

Daily Weather History Graph

Search for Another Location

Airport or City:

Trip Planner

Search our weather history database for the weather conditions in past years. The results will help you decide how hot, cold, wet, or windy it might be!

Date:

Astronomy

Sep. 10, 2013 Rise Set
Actual Time 6:23 AM CDT 6:53 PM CDT
Civil Twilight 5:58 AM CDT 7:18 PM CDT
Nautical Twilight 5:30 AM CDT 7:46 PM CDT
Astronomical Twilight 5:00 AM CDT 8:15 PM CDT
Moon 11:25 AM CDT (9/10) 10:19 PM CDT (9/10)
Length of Visible Light 13h 19m
Length of Day
12h 30m
Waxing Crescent, 28% of the Moon is Illuminated
Sep 10
Waxing Crescent
Sep 12
First Quarter
Sep 19
Full
Sep 26
Last Quarter
Oct 4
New

Hourly Weather History & Observations

Time (CDT) Temp. Heat Index Dew Point Humidity Pressure Visibility Wind Dir Wind Speed Gust Speed Precip Events Conditions
12:53 AM 75.0 °F - 72.0 °F 90% 30.10 in 10.0 mi Calm Calm - N/A   Scattered Clouds
1:53 AM 73.9 °F - 72.0 °F 93% 30.11 in 9.0 mi East 4.6 mph - N/A   Clear
2:53 AM 73.9 °F - 71.1 °F 91% 30.10 in 10.0 mi East 3.5 mph - N/A   Clear
3:53 AM 73.0 °F - 70.0 °F 90% 30.10 in 10.0 mi ESE 6.9 mph - N/A   Clear
4:53 AM 73.0 °F - 70.0 °F 90% 30.11 in 10.0 mi East 5.8 mph - N/A   Clear
5:53 AM 72.0 °F - 70.0 °F 93% 30.13 in 10.0 mi East 3.5 mph - N/A   Clear
6:53 AM 72.0 °F - 69.1 °F 91% 30.16 in 10.0 mi East 3.5 mph - N/A   Clear
7:53 AM 73.9 °F - 70.0 °F 87% 30.17 in 10.0 mi East 5.8 mph - N/A   Clear
8:53 AM 78.1 °F - 70.0 °F 76% 30.18 in 10.0 mi East 4.6 mph - N/A   Clear
9:53 AM 81.0 °F 84.4 °F 70.0 °F 69% 30.19 in 10.0 mi East 9.2 mph - N/A   Clear
10:53 AM 82.9 °F 87.0 °F 70.0 °F 65% 30.20 in 10.0 mi East 6.9 mph - N/A   Clear
11:53 AM 86.0 °F 89.4 °F 68.0 °F 55% 30.18 in 10.0 mi ENE 9.2 mph - N/A   Scattered Clouds
12:53 PM 86.0 °F 89.4 °F 68.0 °F 55% 30.18 in 10.0 mi East 5.8 mph - N/A   Scattered Clouds
1:53 PM 88.0 °F 91.4 °F 68.0 °F 51% 30.16 in 10.0 mi ESE 5.8 mph - N/A   Partly Cloudy
2:53 PM 86.0 °F 88.2 °F 66.0 °F 51% 30.14 in 10.0 mi ENE 6.9 mph - N/A   Mostly Cloudy
3:53 PM 88.0 °F 90.3 °F 66.0 °F 48% 30.12 in 10.0 mi East 9.2 mph - N/A   Scattered Clouds
4:53 PM 87.1 °F 89.9 °F 66.9 °F 51% 30.12 in 10.0 mi East 6.9 mph - N/A   Clear
5:53 PM 84.9 °F 88.2 °F 68.0 °F 57% 30.12 in 10.0 mi East 5.8 mph - N/A   Clear
6:53 PM 81.0 °F 84.4 °F 70.0 °F 69% 30.13 in 10.0 mi NE 3.5 mph - N/A   Clear
7:53 PM 78.1 °F - 70.0 °F 76% 30.14 in 10.0 mi ENE 3.5 mph - N/A   Clear
8:53 PM 75.9 °F - 70.0 °F 82% 30.16 in 10.0 mi NE 5.8 mph - N/A   Clear
9:53 PM 75.9 °F - 71.1 °F 85% 30.17 in 10.0 mi NE 4.6 mph - N/A   Partly Cloudy
10:53 PM 75.9 °F - 71.1 °F 85% 30.18 in 8.0 mi East 12.7 mph - 0.02 in Rain Light Rain
11:53 PM 75.9 °F - 72.0 °F 87% 30.16 in 10.0 mi East 5.8 mph - 0.01 in   Overcast